                ,  0.945,  1.145,  1.345,  1.545,  1.745,  1.945,  2.145,  2.345,  2.545,  2.745,  2.945,  3.145,  3.345,  3.545,  3.745,  3.945,  4.145,  4.345,  4.545,  4.745,  4.945,  5.145,  5.345,  5.545,  5.745,  5.945,  6.145,  6.345,  6.545,  6.745,  6.945,  7.145,  7.345,  7.545,  7.745,  7.945,  8.145,  8.345,  8.545,  8.745,  8.945,  9.145,  9.345,  9.545,  9.745,  9.945
2000/06/22 00:00,  999.0,  999.0,  999.0,  999.0,  999.0,  999.0,  999.0,  999.0,  999.0,  999.0,  999.0,  999.0,  999.0,  999.0,  999.0,  999.0,  999.0,  999.0,  999.0,  999.0,  999.0,  999.0,  999.0,  999.0,  999.0,  999.0,  999.0,  999.0,  999.0,  999.0,  999.0,  999.0,  999.0,  999.0,  999.0,  999.0,  999.0,  999.0,  999.0,  999.0,  999.0,  999.0,  999.0,  999.0,  999.0,  999.0
2000/06/22 00:10,  999.0,  999.0,  999.0,  999.0,  999.0,   -0.5,   -0.6,   -0.5,   -0.3,   -0.2,   -0.2,  999.0,  999.0,  999.0,   -0.2,  999.0,  999.0,  999.0,  999.0,  999.0,  999.0,  999.0,  999.0,  999.0,   -0.0,  999.0,  999.0,   -0.1,  999.0,  999.0,  999.0,  999.0,  999.0,  999.0,  999.0,  999.0,  999.0,  999.0,  999.0,  999.0,  999.0,  999.0,  999.0,  999.0,  999.0,  999.0
2000/06/22 00:20,  999.0,    0.2,  999.0,    0.1,   -0.3,   -0.8,   -0.5,  999.0,  999.0,  999.0,  999.0,   -0.0,   -0.0,   -0.0,   -0.0,  999.0,  999.0,  999.0,  999.0,  999.0,  999.0,  999.0,  999.0,  999.0,  999.0,  999.0,   -0.1,   -0.1,  999.0,  999.0,  999.0,  999.0,  999.0,  999.0,  999.0,  999.0,  999.0,  999.0,  999.0,  999.0,  999.0,  999.0,  999.0,  999.0,  999.0,  999.0
2000/06/22 00:30,  999.0,  999.0,  999.0,  999.0,    0.0,  999.0,  999.0,   -0.2,  999.0,    0.0,  999.0,  999.0,  999.0,  999.0,   -0.1,  999.0,  999.0,   -0.0,    0.2,    0.2,  999.0,  999.0,  999.0,    0.0,    0.1,  999.0,    0.0,   -0.1,  999.0,  999.0,  999.0,  999.0,  999.0,  999.0,  999.0,  999.0,  999.0,  999.0,  999.0,  999.0,  999.0,  999.0,  999.0,  999.0,  999.0,  999.0
2000/06/22 00:40,  999.0,  999.0,  999.0,   -0.0,  999.0,  999.0,   -0.2,   -0.4,   -0.2,    0.0,  999.0,  999.0,  999.0,  999.0,   -0.2,  999.0,    0.0,   -0.1,  999.0,  999.0,  999.0,  999.0,  999.0,    0.0,   -0.0,  999.0,    0.1,  999.0,  999.0,  999.0,  999.0,  999.0,  999.0,  999.0,  999.0,  999.0,  999.0,  999.0,  999.0,  999.0,  999.0,  999.0,  999.0,  999.0,  999.0,  999.0
2000/06/22 00:50,  999.0,  999.0,    0.1,  999.0,    0.1,  999.0,   -0.2,   -0.2,  999.0,   -0.2,  999.0,  999.0,  999.0,  999.0,   -0.1,  999.0,  999.0,  999.0,  999.0,  999.0,  999.0,  999.0,  999.0,  999.0,  999.0,  999.0,  999.0,  999.0,  999.0,  999.0,  999.0,  999.0,    0.1,  999.0,  999.0,  999.0,  999.0,  999.0,  999.0,  999.0,  999.0,  999.0,  999.0,  999.0,  999.0,  999.0
2000/06/22 01:00,  999.0,  999.0,   -0.1,  999.0,  999.0,   -0.1,    0.0,   -0.2,  999.0,   -0.1,  999.0,  999.0,    0.0,    0.0,    0.0,  999.0,  999.0,  999.0,  999.0,  999.0,  999.0,  999.0,  999.0,    0.1,    0.1,  999.0,  999.0,  999.0,  999.0,  999.0,  999.0,  999.0,    0.2,    0.0,  999.0,  999.0,  999.0,  999.0,  999.0,  999.0,  999.0,  999.0,  999.0,  999.0,  999.0,  999.0
2000/06/22 01:10,  999.0,  999.0,  999.0,    0.0,    0.1,    0.0,    0.0,  999.0,  999.0,    0.1,  999.0,  999.0,  999.0,   -0.0,  999.0,  999.0,    0.1,  999.0,  999.0,  999.0,  999.0,    0.1,  999.0,    0.1,    0.1,  999.0,  999.0,  999.0,  999.0,  999.0,  999.0,  999.0,  999.0,  999.0,  999.0,  999.0,  999.0,  999.0,  999.0,  999.0,  999.0,  999.0,  999.0,  999.0,  999.0,  999.0
2000/06/22 01:20,  999.0,  999.0,   -0.1,   -0.0,    0.0,   -0.1,   -0.1,  999.0,    0.0,  999.0,  999.0,   -0.1,  999.0,  999.0,   -0.1,  999.0,   -0.1,   -0.2,  999.0,  999.0,  999.0,   -0.0,    0.0,    0.0,    0.1,  999.0,  999.0,  999.0,  999.0,  999.0,   -0.1,  999.0,  999.0,  999.0,  999.0,  999.0,  999.0,  999.0,  999.0,  999.0,  999.0,  999.0,  999.0,  999.0,  999.0,  999.0
2000/06/22 01:30,  999.0,  999.0,    0.1,    0.0,    0.1,    0.2,   -0.4,  999.0,  999.0,  999.0,    0.3,    0.0,  999.0,  999.0,    0.1,  999.0,   -0.0,  999.0,  999.0,    0.1,   -0.0,  999.0,   -0.1,   -0.0,    0.0,  999.0,  999.0,    0.1,  999.0,  999.0,  999.0,  999.0,  999.0,  999.0,  999.0,  999.0,  999.0,  999.0,  999.0,  999.0,  999.0,  999.0,  999.0,  999.0,  999.0,  999.0
2000/06/22 01:40,  999.0,  999.0,  999.0,  999.0,  999.0,  999.0,   -0.7,   -0.4,    0.1,  999.0,  999.0,   -0.0,  999.0,  999.0,  999.0,  999.0,  999.0,  999.0,  999.0,   -0.1,   -0.1,   -0.0,    0.0,   -0.0,   -0.1,  999.0,  999.0,    0.0,  999.0,  999.0,  999.0,  999.0,  999.0,  999.0,  999.0,  999.0,  999.0,  999.0,  999.0,  999.0,  999.0,  999.0,  999.0,  999.0,  999.0,  999.0
2000/06/22 01:50,  999.0,  999.0,  999.0,   -0.1,  999.0,   -0.8,   -0.6,   -0.4,   -0.2,  999.0,   -0.0,  999.0,   -0.1,  999.0,   -0.0,   -0.1,  999.0,  999.0,  999.0,   -0.1,    0.0,  999.0,    0.1,    0.1,  999.0,  999.0,    0.0,  999.0,   -0.2,   -0.3,  999.0,  999.0,  999.0,  999.0,  999.0,  999.0,  999.0,  999.0,  999.0,  999.0,  999.0,  999.0,  999.0,  999.0,  999.0,  999.0
2000/06/22 02:00,  999.0,  999.0,  999.0,   -0.1,  999.0,   -0.9,   -0.4,   -0.4,  999.0,    0.0,  999.0,  999.0,   -0.1,  999.0,  999.0,  999.0,  999.0,  999.0,  999.0,  999.0,    0.2,  999.0,  999.0,  999.0,  999.0,    0.0,  999.0,  999.0,  999.0,   -0.1,  999.0,  999.0,  999.0,  999.0,  999.0,  999.0,  999.0,  999.0,  999.0,  999.0,  999.0,  999.0,  999.0,  999.0,  999.0,  999.0
2000/06/22 02:10,  999.0,    0.1,  999.0,  999.0,   -0.1,  999.0,   -0.4,   -0.4,   -0.1,   -0.0,  999.0,    0.2,  999.0,  999.0,   -0.1,  999.0,  999.0,  999.0,  999.0,  999.0,    0.0,  999.0,    0.1,    0.1,  999.0,  999.0,  999.0,  999.0,   -0.0,  999.0,  999.0,  999.0,  999.0,  999.0,  999.0,  999.0,  999.0,  999.0,  999.0,  999.0,  999.0,  999.0,  999.0,  999.0,  999.0,  999.0
2000/06/22 02:20,  999.0,  999.0,  999.0,    0.1,    0.1,  999.0,   -0.4,   -0.3,   -0.1,    0.1,  999.0,  999.0,  999.0,   -0.0,   -0.0,    0.1,  999.0,  999.0,  999.0,    0.1,    0.2,  999.0,  999.0,  999.0,  999.0,  999.0,  999.0,  999.0,   -0.0,   -0.1,   -0.3,   -0.4,  999.0,  999.0,  999.0,  999.0,  999.0,  999.0,  999.0,  999.0,  999.0,  999.0,  999.0,  999.0,  999.0,  999.0
2000/06/22 02:30,  999.0,  999.0,  999.0,  999.0,    0.1,   -0.1,   -0.0,   -0.2,  999.0,    0.0,   -0.2,   -0.2,  999.0,  999.0,  999.0,  999.0,  999.0,  999.0,  999.0,    0.0,    0.0,   -0.0,  999.0,  999.0,  999.0,  999.0,  999.0,   -0.1,    0.1,    0.2,   -0.0,  999.0,  999.0,  999.0,  999.0,  999.0,  999.0,  999.0,  999.0,  999.0,  999.0,  999.0,  999.0,  999.0,  999.0,  999.0
2000/06/22 02:40,   -0.3,   -0.1,   -0.1,   -0.1,  999.0,    0.0,   -0.2,   -0.0,  999.0,  999.0,  999.0,  999.0,  999.0,  999.0,  999.0,   -0.1,   -0.1,   -0.3,  999.0,   -0.0,   -0.0,  999.0,  999.0,  999.0,  999.0,  999.0,  999.0,  999.0,  999.0,  999.0,    0.0,   -0.2,  999.0,  999.0,  999.0,  999.0,  999.0,  999.0,  999.0,  999.0,  999.0,  999.0,  999.0,  999.0,  999.0,  999.0
2000/06/22 02:50,   -0.0,  999.0,  999.0,  999.0,  999.0,    0.1,  999.0,  999.0,  999.0,  999.0,  999.0,  999.0,  999.0,  999.0,  999.0,    0.1,    0.1,  999.0,  999.0,  999.0,    0.0,  999.0,  999.0,  999.0,  999.0,  999.0,  999.0,  999.0,   -0.1,   -0.1,   -0.1,   -0.3,   -0.5,   -0.6,   -0.6,  999.0,  999.0,  999.0,  999.0,  999.0,  999.0,  999.0,  999.0,  999.0,  999.0,  999.0
2000/06/22 03:00,   -0.1,  999.0,  999.0,  999.0,    0.0,  999.0,  999.0,  999.0,  999.0,  999.0,  999.0,  999.0,  999.0,  999.0,   -0.0,    0.1,    0.0,  999.0,  999.0,    0.1,   -0.2,    0.0,  999.0,  999.0,  999.0,  999.0,  999.0,   -0.1,   -0.0,   -0.2,   -0.5,   -0.7,   -0.8,   -0.8,   -0.9,   -0.7,   -0.6,  999.0,  999.0,  999.0,  999.0,  999.0,  999.0,  999.0,   -0.9,  999.0
2000/06/22 03:10,   -0.4,  999.0,  999.0,    0.1,  999.0,  999.0,  999.0,  999.0,  999.0,  999.0,  999.0,   -0.1,  999.0,  999.0,   -0.0,   -0.0,  999.0,  999.0,  999.0,  999.0,  999.0,  999.0,  999.0,  999.0,   -0.1,  999.0,  999.0,   -0.4,   -0.4,   -0.3,   -0.7,   -0.7,   -0.7,   -0.7,   -0.7,   -0.6,   -0.5,  999.0,  999.0,  999.0,  999.0,  999.0,  999.0,  999.0,  999.0,  999.0
2000/06/22 03:20,  999.0,  999.0,  999.0,    0.1,    0.2,  999.0,  999.0,   -0.0,  999.0,    0.1,   -0.0,  999.0,  999.0,  999.0,  999.0,  999.0,  999.0,  999.0,  999.0,  999.0,  999.0,  999.0,   -0.1,   -0.1,  999.0,    0.0,   -0.3,   -0.7,   -0.6,   -0.7,   -0.7,   -0.7,   -0.7,   -0.7,   -0.7,   -0.7,  999.0,  999.0,  999.0,  999.0,  999.0,  999.0,  999.0,  999.0,  999.0,  999.0
2000/06/22 03:30,  999.0,  999.0,  999.0,    0.1,   -0.0,    0.0,  999.0,   -0.0,    0.1,    0.1,  999.0,  999.0,    0.0,  999.0,  999.0,   -0.1,  999.0,  999.0,  999.0,   -0.1,   -0.1,   -0.5,   -1.1,   -1.0,   -0.9,   -0.9,   -0.8,   -0.9,   -0.8,   -0.8,   -0.7,   -0.6,   -0.6,   -0.7,   -0.6,   -0.6,   -0.5,   -0.2,  999.0,  999.0,  999.0,  999.0,  999.0,  999.0,  999.0,  999.0
2000/06/22 03:40,  999.0,  999.0,  999.0,   -0.1,   -0.2,    0.2,   -0.1,    0.3,    0.3,    0.2,    0.4,    0.4,   -0.1,    0.2,   -0.1,  999.0,  999.0,   -0.2,   -0.2,   -0.2,   -0.3,   -0.4,   -0.6,   -0.7,   -0.8,   -0.7,   -0.7,   -0.7,   -0.6,   -0.6,   -0.6,   -0.6,   -0.5,   -0.4,   -0.0,   -0.1,  999.0,  999.0,  999.0,  999.0,  999.0,  999.0,  999.0,  999.0,  999.0,  999.0
2000/06/22 03:50,   -0.0,    0.1,    0.1,  999.0,  999.0,   -0.1,  999.0,   -0.4,   -0.0,   -0.2,    0.1,  999.0,   -0.1,  999.0,  999.0,    0.1,  999.0,    0.2,    0.0,    0.1,   -0.1,   -0.5,   -0.8,   -0.9,   -0.9,   -0.9,   -0.9,   -0.9,   -0.8,   -0.8,   -0.7,   -0.6,   -0.6,   -0.7,   -0.8,   -0.8,   -0.6,   -0.4,   -0.2,  999.0,  999.0,  999.0,  999.0,  999.0,  999.0,  999.0
2000/06/22 04:00,    0.1,    0.1,  999.0,  999.0,  999.0,   -0.2,  999.0,   -0.2,   -0.1,  999.0,  999.0,    0.2,    0.0,  999.0,  999.0,   -0.1,  999.0,    0.3,    0.1,   -0.0,   -0.1,   -0.1,   -0.6,   -0.8,   -0.8,   -0.9,   -0.9,   -1.0,   -0.9,   -0.8,   -0.7,   -0.7,   -0.7,   -0.8,   -0.9,   -0.8,   -0.6,   -0.7,   -0.5,  999.0,  999.0,  999.0,  999.0,  999.0,  999.0,  999.0
2000/06/22 04:10,    0.1,  999.0,  999.0,   -0.1,  999.0,  999.0,   -0.7,   -0.2,  999.0,  999.0,   -0.0,  999.0,  999.0,  999.0,  999.0,  999.0,  999.0,  999.0,  999.0,   -0.1,   -0.1,   -0.2,   -0.6,   -0.8,   -0.8,   -0.9,   -1.0,   -0.9,   -0.8,   -0.7,   -0.7,   -0.6,   -0.7,   -0.8,   -0.4,   -0.4,   -0.6,   -0.6,   -0.1,  999.0,  999.0,  999.0,  999.0,  999.0,  999.0,  999.0
2000/06/22 04:20,    0.2,    0.2,    0.0,    0.1,  999.0,  999.0,  999.0,  999.0,  999.0,  999.0,   -0.2,   -0.3,   -0.2,  999.0,   -0.1,   -0.1,  999.0,  999.0,  999.0,   -0.1,   -0.1,   -0.3,   -0.7,   -0.9,   -0.9,   -1.0,   -1.0,   -1.0,   -1.0,   -0.9,   -0.8,   -0.8,   -0.8,   -0.8,   -0.7,   -0.6,   -1.0,   -0.6,   -0.5,  999.0,  999.0,  999.0,  999.0,  999.0,  999.0,  999.0
2000/06/22 04:30,    0.0,    0.2,    0.2,  999.0,    0.1,  999.0,   -0.3,   -0.3,   -0.1,   -0.0,   -0.1,    0.1,   -0.0,  999.0,   -0.1,   -0.0,  999.0,  999.0,  999.0,    0.1,   -0.1,   -0.8,   -0.9,   -1.0,   -1.1,   -1.1,   -1.1,   -1.1,   -1.0,   -0.9,   -0.9,   -0.8,   -0.9,   -0.9,   -1.0,   -1.2,   -1.1,   -0.7,   -0.2,   -0.6,  999.0,  999.0,  999.0,  999.0,  999.0,  999.0
2000/06/22 04:40,    0.1,    0.1,  999.0,  999.0,  999.0,  999.0,  999.0,   -0.2,   -0.2,  999.0,  999.0,   -0.1,   -0.0,  999.0,   -0.2,  999.0,  999.0,  999.0,  999.0,   -0.0,   -0.1,   -0.1,   -0.5,   -0.9,   -1.0,   -1.1,   -1.1,   -1.0,   -0.8,   -0.8,   -0.7,   -0.6,   -0.2,   -0.2,   -0.7,  999.0,  999.0,  999.0,  999.0,  999.0,  999.0,  999.0,  999.0,  999.0,  999.0,  999.0
2000/06/22 04:50,    0.1,    0.2,    0.1,  999.0,  999.0,  999.0,  999.0,  999.0,    0.0,   -0.0,  999.0,   -0.1,    0.1,  999.0,  999.0,  999.0,  999.0,  999.0,  999.0,   -0.2,   -0.1,   -0.1,   -0.7,   -0.9,   -1.1,   -1.0,   -1.0,   -0.9,   -0.8,   -0.7,   -0.6,   -0.5,   -0.4,   -0.5,  999.0,  999.0,  999.0,  999.0,  999.0,  999.0,  999.0,  999.0,  999.0,  999.0,  999.0,  999.0
2000/06/22 05:00,    0.2,    0.3,    0.2,   -0.1,    0.0,  999.0,   -0.0,   -0.1,   -0.1,    0.1,  999.0,  999.0,  999.0,  999.0,   -0.2,  999.0,  999.0,  999.0,  999.0,  999.0,   -0.1,   -0.6,   -0.7,   -0.8,   -1.0,   -1.1,   -1.1,   -0.9,   -0.9,   -0.7,   -0.6,   -0.6,   -0.5,   -0.5,   -0.5,   -0.4,  999.0,  999.0,  999.0,  999.0,  999.0,  999.0,  999.0,  999.0,  999.0,  999.0
2000/06/22 05:10,    0.1,    0.3,  999.0,    0.0,  999.0,   -0.1,   -0.0,   -0.2,   -0.1,   -0.1,  999.0,   -0.1,  999.0,  999.0,  999.0,  999.0,  999.0,  999.0,  999.0,  999.0,    0.0,   -0.2,   -0.3,   -0.8,   -1.0,   -0.9,   -0.9,   -0.9,   -0.9,   -0.8,   -0.8,   -0.7,   -0.8,   -0.8,   -0.4,   -0.3,   -0.2,  999.0,  999.0,  999.0,  999.0,  999.0,  999.0,  999.0,  999.0,  999.0
2000/06/22 05:20,    0.2,    0.3,    0.2,  999.0,   -0.1,  999.0,  999.0,  999.0,  999.0,  999.0,  999.0,  999.0,    0.1,   -0.1,   -0.1,  999.0,  999.0,  999.0,  999.0,  999.0,   -0.2,  999.0,   -0.4,   -0.7,   -0.8,   -0.7,   -0.7,   -1.0,   -1.1,   -0.9,   -0.9,   -1.0,   -0.9,   -0.2,   -0.0,  999.0,  999.0,  999.0,  999.0,  999.0,  999.0,  999.0,  999.0,  999.0,  999.0,  999.0
2000/06/22 05:30,  999.0,    0.3,    0.2,  999.0,   -0.0,  999.0,  999.0,   -0.0,   -0.1,    0.1,   -0.0,  999.0,   -0.4,  999.0,    0.0,  999.0,   -0.2,   -0.1,   -0.4,   -0.1,   -0.0,   -0.2,   -0.4,   -0.7,   -0.9,   -0.9,   -0.9,   -1.0,   -0.9,   -0.7,   -0.6,   -0.4,   -0.3,   -0.2,   -0.0,  999.0,  999.0,  999.0,  999.0,  999.0,  999.0,  999.0,  999.0,  999.0,  999.0,  999.0
2000/06/22 05:40,  999.0,  999.0,  999.0,    0.1,  999.0,   -0.0,  999.0,  999.0,   -0.1,  999.0,   -0.1,  999.0,    0.1,   -0.0,   -0.1,   -0.1,   -0.1,   -0.0,   -0.2,   -0.3,   -0.6,   -0.9,   -1.1,   -0.9,   -0.8,   -0.7,   -0.7,   -0.8,   -0.8,   -0.6,   -0.3,   -0.4,   -0.3,  999.0,  999.0,  999.0,  999.0,  999.0,  999.0,  999.0,  999.0,  999.0,  999.0,  999.0,  999.0,  999.0
2000/06/22 05:50,  999.0,  999.0,    0.1,    0.0,  999.0,   -0.0,  999.0,  999.0,  999.0,  999.0,   -0.1,   -0.1,   -0.2,   -0.2,  999.0,    0.1,  999.0,    0.0,   -0.1,   -0.1,   -0.2,   -0.2,   -0.6,   -1.0,   -1.0,   -0.6,   -0.7,   -0.5,   -0.6,  999.0,  999.0,  999.0,  999.0,  999.0,  999.0,  999.0,  999.0,  999.0,  999.0,  999.0,  999.0,  999.0,  999.0,  999.0,  999.0,  999.0
2000/06/22 06:00,  999.0,  999.0,  999.0,   -0.1,   -0.0,   -0.1,   -0.1,   -0.2,  999.0,  999.0,   -0.1,  999.0,   -0.0,   -0.1,   -0.1,   -0.3,   -0.2,   -0.2,   -0.2,   -0.1,   -0.1,   -0.2,   -0.2,   -0.6,   -0.9,   -0.4,   -0.4,   -0.3,   -0.4,  999.0,  999.0,  999.0,  999.0,  999.0,  999.0,  999.0,  999.0,  999.0,  999.0,  999.0,  999.0,  999.0,  999.0,  999.0,  999.0,  999.0
2000/06/22 06:10,  999.0,    0.1,  999.0,  999.0,  999.0,  999.0,    0.1,    0.1,  999.0,  999.0,  999.0,  999.0,  999.0,   -0.1,    0.0,   -0.1,   -0.1,   -0.1,   -0.2,   -0.1,   -0.1,   -0.2,   -0.2,   -0.2,  999.0,   -0.2,   -0.2,   -0.1,   -0.6,   -0.4,  999.0,  999.0,  999.0,  999.0,  999.0,  999.0,  999.0,  999.0,  999.0,  999.0,  999.0,  999.0,  999.0,  999.0,  999.0,  999.0
2000/06/22 06:20,  999.0,  999.0,   -0.1,  999.0,  999.0,  999.0,  999.0,  999.0,  999.0,  999.0,    0.1,  999.0,  999.0,  999.0,  999.0,  999.0,  999.0,  999.0,  999.0,   -0.1,  999.0,   -0.2,   -0.0,  999.0,   -0.1,    0.2,   -0.1,  999.0,   -0.1,   -0.1,   -0.2,  999.0,  999.0,  999.0,  999.0,  999.0,  999.0,  999.0,  999.0,  999.0,  999.0,  999.0,  999.0,  999.0,  999.0,  999.0
2000/06/22 06:30,  999.0,   -0.0,   -0.0,  999.0,   -0.1,  999.0,  999.0,  999.0,  999.0,  999.0,  999.0,  999.0,  999.0,  999.0,  999.0,  999.0,  999.0,  999.0,   -0.0,   -0.0,  999.0,   -0.0,   -0.1,  999.0,  999.0,  999.0,  999.0,   -0.3,   -0.4,   -0.7,   -0.2,   -0.1,  999.0,  999.0,  999.0,  999.0,  999.0,  999.0,  999.0,  999.0,  999.0,  999.0,  999.0,  999.0,  999.0,  999.0
2000/06/22 06:40,  999.0,   -0.0,   -0.0,  999.0,   -0.0,  999.0,  999.0,   -0.0,   -0.0,   -0.0,  999.0,  999.0,  999.0,  999.0,   -0.3,  999.0,   -0.0,  999.0,  999.0,   -0.0,  999.0,   -0.1,   -0.1,   -0.1,  999.0,  999.0,  999.0,   -0.1,   -0.1,   -0.3,   -0.2,  999.0,  999.0,    0.0,  999.0,  999.0,  999.0,  999.0,  999.0,  999.0,  999.0,  999.0,  999.0,  999.0,  999.0,  999.0
2000/06/22 06:50,  999.0,   -0.1,  999.0,  999.0,   -0.2,    0.1,  999.0,   -0.0,  999.0,  999.0,  999.0,  999.0,   -0.0,  999.0,   -0.1,  999.0,  999.0,   -0.1,  999.0,  999.0,  999.0,    0.0,    0.0,   -0.1,  999.0,   -0.1,  999.0,  999.0,   -0.5,  999.0,  999.0,  999.0,  999.0,  999.0,  999.0,  999.0,  999.0,  999.0,  999.0,  999.0,  999.0,  999.0,  999.0,  999.0,  999.0,  999.0
2000/06/22 07:00,   -0.0,   -0.1,  999.0,   -0.0,  999.0,  999.0,  999.0,  999.0,  999.0,  999.0,    0.1,  999.0,  999.0,  999.0,  999.0,  999.0,  999.0,  999.0,  999.0,  999.0,  999.0,  999.0,   -0.0,  999.0,   -0.0,   -0.0,   -0.1,  999.0,   -0.4,   -0.5,   -0.5,  999.0,  999.0,  999.0,  999.0,  999.0,  999.0,  999.0,  999.0,  999.0,  999.0,  999.0,  999.0,  999.0,  999.0,  999.0
2000/06/22 07:10,  999.0,   -0.0,   -0.0,  999.0,  999.0,  999.0,  999.0,    0.1,  999.0,  999.0,    0.1,  999.0,   -0.1,  999.0,    0.1,  999.0,  999.0,    0.1,  999.0,  999.0,  999.0,   -0.2,  999.0,  999.0,  999.0,  999.0,  999.0,  999.0,  999.0,  999.0,  999.0,  999.0,  999.0,  999.0,  999.0,  999.0,  999.0,  999.0,  999.0,  999.0,  999.0,  999.0,  999.0,  999.0,  999.0,  999.0
2000/06/22 07:20,  999.0,  999.0,   -0.1,  999.0,  999.0,  999.0,   -0.1,   -0.3,   -0.2,   -0.4,   -0.3,   -0.2,   -0.1,  999.0,   -0.1,  999.0,  999.0,  999.0,  999.0,  999.0,   -0.2,    0.0,   -0.1,   -0.3,   -0.3,   -0.3,  999.0,  999.0,  999.0,  999.0,  999.0,  999.0,  999.0,  999.0,  999.0,  999.0,  999.0,  999.0,  999.0,  999.0,  999.0,  999.0,  999.0,  999.0,  999.0,  999.0
2000/06/22 07:30,  999.0,  999.0,  999.0,    0.1,  999.0,    0.1,  999.0,   -0.0,   -0.1,  999.0,  999.0,  999.0,  999.0,  999.0,  999.0,    0.1,  999.0,  999.0,  999.0,  999.0,   -0.1,   -0.2,  999.0,   -0.5,   -0.6,   -0.4,   -0.1,   -0.2,  999.0,  999.0,  999.0,  999.0,  999.0,  999.0,  999.0,  999.0,  999.0,  999.0,  999.0,  999.0,  999.0,  999.0,  999.0,  999.0,  999.0,  999.0
2000/06/22 07:40,  999.0,   -0.1,   -0.1,    0.1,  999.0,    0.1,    0.0,   -0.1,   -0.2,   -0.1,   -0.2,  999.0,   -0.2,  999.0,   -0.2,  999.0,  999.0,  999.0,  999.0,   -0.2,   -0.3,   -0.1,   -0.2,   -0.3,   -0.2,   -0.1,   -0.2,   -0.4,   -0.2,  999.0,  999.0,  999.0,  999.0,  999.0,  999.0,  999.0,  999.0,  999.0,  999.0,  999.0,  999.0,  999.0,  999.0,  999.0,  999.0,  999.0
2000/06/22 07:50,  999.0,   -0.0,   -0.1,  999.0,  999.0,    0.0,   -0.1,  999.0,   -0.1,   -0.1,  999.0,  999.0,  999.0,  999.0,   -0.0,  999.0,    0.0,  999.0,   -0.1,  999.0,   -0.1,   -0.2,   -0.3,   -0.3,   -0.2,    0.0,   -0.1,   -0.0,   -0.2,   -0.3,  999.0,  999.0,  999.0,  999.0,  999.0,  999.0,  999.0,  999.0,  999.0,  999.0,  999.0,  999.0,  999.0,  999.0,  999.0,  999.0
2000/06/22 08:00,  999.0,  999.0,   -0.2,   -0.1,   -0.1,    0.0,  999.0,  999.0,    0.0,   -0.2,    0.1,  999.0,    0.1,   -0.2,   -0.1,  999.0,  999.0,  999.0,  999.0,   -0.2,   -0.1,   -0.2,   -0.3,   -0.4,   -0.4,  999.0,   -0.1,  999.0,  999.0,   -0.0,  999.0,  999.0,  999.0,  999.0,  999.0,  999.0,  999.0,  999.0,  999.0,  999.0,  999.0,  999.0,  999.0,  999.0,  999.0,  999.0
2000/06/22 08:10,  999.0,  999.0,   -0.2,  999.0,  999.0,    0.1,    0.0,    0.1,    0.1,  999.0,  999.0,  999.0,  999.0,    0.0,    0.1,  999.0,  999.0,  999.0,   -0.2,   -0.1,   -0.4,   -0.3,   -0.3,  999.0,  999.0,  999.0,  999.0,  999.0,  999.0,  999.0,    0.1,   -0.2,   -0.4,  999.0,  999.0,  999.0,  999.0,  999.0,  999.0,  999.0,  999.0,  999.0,  999.0,  999.0,  999.0,  999.0
2000/06/22 08:20,  999.0,    0.1,   -0.1,   -0.2,  999.0,   -0.1,   -0.0,   -0.0,    0.1,    0.1,   -0.1,  999.0,  999.0,    0.1,   -0.1,   -0.2,    0.0,   -0.1,    0.0,   -0.0,   -0.2,    0.1,  999.0,   -0.4,   -0.0,   -0.2,  999.0,   -0.8,   -0.8,   -0.8,   -0.6,   -0.6,   -0.4,   -0.3,   -0.1,    0.1,  999.0,  999.0,  999.0,  999.0,  999.0,  999.0,  999.0,  999.0,  999.0,  999.0
2000/06/22 08:30,  999.0,  999.0,  999.0,   -0.1,   -0.1,   -0.1,   -0.0,   -0.1,   -0.0,   -0.2,   -0.1,  999.0,    0.0,  999.0,    0.0,   -0.1,  999.0,  999.0,  999.0,    0.1,  999.0,   -0.1,  999.0,  999.0,  999.0,   -0.8,   -0.8,   -0.8,   -0.9,   -0.8,   -0.8,   -0.7,   -0.8,   -0.7,   -0.6,   -0.3,  999.0,  999.0,  999.0,  999.0,  999.0,  999.0,  999.0,  999.0,  999.0,  999.0
2000/06/22 08:40,  999.0,  999.0,    0.1,  999.0,   -0.1,   -0.1,  999.0,  999.0,   -0.1,   -0.2,   -0.1,  999.0,   -0.1,  999.0,   -0.1,   -0.1,   -0.1,  999.0,  999.0,  999.0,  999.0,   -0.2,  999.0,  999.0,  999.0,   -0.5,   -0.6,   -0.7,   -0.7,   -0.6,   -0.6,   -0.7,   -0.6,   -0.6,   -0.5,   -0.3,  999.0,  999.0,  999.0,  999.0,  999.0,  999.0,  999.0,  999.0,  999.0,  999.0
2000/06/22 08:50,  999.0,   -0.2,    0.1,  999.0,    0.1,    0.2,    0.1,   -0.0,    0.3,    0.2,    0.2,  999.0,   -0.1,  999.0,   -0.1,    0.0,  999.0,   -0.2,   -0.1,   -0.3,   -0.2,   -0.2,   -0.3,   -0.4,   -0.4,   -0.5,   -0.6,   -0.5,   -0.4,   -0.4,   -0.2,   -0.2,   -0.2,   -0.3,   -0.3,  999.0,  999.0,  999.0,  999.0,  999.0,  999.0,  999.0,  999.0,  999.0,  999.0,  999.0
2000/06/22 09:00,   -0.0,    0.2,    0.2,    0.1,    0.0,  999.0,    0.1,    0.1,  999.0,    0.1,  999.0,  999.0,    0.0,    0.2,    0.0,   -0.1,  999.0,    0.0,    0.2,    0.0,   -0.1,   -0.7,   -0.7,   -0.7,   -0.7,   -0.8,   -0.9,   -0.9,   -0.9,   -0.9,   -0.8,   -0.7,   -0.6,   -0.3,   -0.3,  999.0,  999.0,  999.0,  999.0,  999.0,  999.0,  999.0,  999.0,  999.0,  999.0,  999.0
2000/06/22 09:10,  999.0,    0.1,   -0.1,    0.1,   -0.0,    0.2,  999.0,    0.2,    0.1,   -0.2,  999.0,  999.0,   -0.0,    0.0,   -0.1,    0.1,  999.0,  999.0,    0.0,    0.1,   -0.3,   -0.8,   -0.8,   -0.7,   -0.7,   -0.8,   -0.8,   -0.8,   -0.8,   -0.8,   -0.6,   -0.6,   -0.5,   -0.4,   -0.3,  999.0,  999.0,  999.0,  999.0,  999.0,  999.0,  999.0,  999.0,  999.0,  999.0,  999.0
2000/06/22 09:20,  999.0,    0.0,   -0.0,    0.1,  999.0,   -0.0,  999.0,  999.0,  999.0,   -0.2,   -0.0,  999.0,    0.1,   -0.0,    0.1,   -0.0,  999.0,    0.1,    0.1,   -0.7,   -0.9,   -1.0,   -1.0,   -0.9,   -0.9,   -0.9,   -0.9,   -0.8,   -0.9,   -0.9,   -0.8,   -0.5,   -0.4,   -0.7,   -0.9,   -0.5,   -0.5,   -0.5,  999.0,  999.0,  999.0,  999.0,  999.0,  999.0,  999.0,  999.0
2000/06/22 09:30,  999.0,    0.1,   -0.0,    0.1,  999.0,  999.0,  999.0,  999.0,   -0.1,  999.0,   -0.1,  999.0,    0.0,  999.0,   -0.0,   -0.1,   -0.4,   -1.1,   -0.5,   -1.1,   -1.3,   -1.0,   -0.9,   -0.8,   -0.7,   -0.7,   -0.7,   -0.6,   -0.7,   -0.8,   -0.8,   -0.8,   -0.8,   -0.9,   -0.9,  999.0,  999.0,  999.0,  999.0,  999.0,  999.0,  999.0,  999.0,  999.0,  999.0,  999.0
2000/06/22 09:40,  999.0,   -0.1,  999.0,    0.1,    0.0,  999.0,    0.1,  999.0,    0.1,    0.2,    0.0,   -0.1,    0.1,   -0.1,   -0.0,   -0.2,   -0.6,   -0.7,   -0.6,   -1.3,   -1.2,   -1.1,   -1.0,   -0.9,   -0.8,   -0.7,   -0.8,   -0.9,   -0.8,   -0.8,   -0.8,   -0.8,   -0.8,   -0.9,   -0.9,   -0.8,   -0.7,   -0.7,   -0.6,   -0.5,   -0.6,  999.0,  999.0,  999.0,  999.0,  999.0
2000/06/22 09:50,  999.0,   -0.0,    0.3,   -0.0,  999.0,    0.0,  999.0,  999.0,  999.0,  999.0,  999.0,  999.0,  999.0,   -2.9,   -2.8,   -2.8,   -2.1,   -1.9,   -1.5,   -1.4,   -1.3,   -1.3,   -1.3,   -1.4,   -1.3,   -1.4,   -1.3,   -1.4,   -1.3,   -1.3,   -1.2,   -1.1,   -1.0,   -1.0,   -1.0,   -0.9,   -0.8,   -0.7,   -0.6,  999.0,  999.0,  999.0,  999.0,  999.0,  999.0,  999.0
2000/06/22 10:00,  999.0,   -0.2,  999.0,  999.0,  999.0,  999.0,  999.0,  999.0,   -3.4,   -3.8,   -4.3,   -4.2,   -3.7,   -4.0,   -3.7,   -3.0,   -3.0,   -2.0,   -2.1,   -1.6,   -1.5,   -1.3,   -1.3,   -1.2,   -1.3,   -1.2,   -1.2,   -1.1,   -1.0,   -0.9,   -0.8,   -0.8,   -0.6,   -0.6,   -0.7,   -0.6,  999.0,  999.0,  999.0,  999.0,  999.0,  999.0,  999.0,  999.0,  999.0,  999.0
2000/06/22 10:10,   -3.8,  999.0,   -4.2,   -4.1,   -3.3,   -4.0,   -3.9,   -3.7,   -3.4,   -4.4,   -3.9,   -3.7,   -3.6,   -3.7,   -3.5,   -2.5,   -1.6,   -1.8,   -1.8,   -1.8,   -1.7,   -1.6,   -1.4,   -1.3,   -1.3,   -1.3,   -1.2,   -0.8,   -0.8,   -0.8,   -0.5,  999.0,   -0.5,   -0.5,  999.0,  999.0,  999.0,  999.0,  999.0,  999.0,  999.0,  999.0,  999.0,  999.0,  999.0,  999.0
2000/06/22 10:20,   -0.3,  999.0,   -5.3,   -3.5,   -5.3,   -5.2,   -5.2,   -5.2,   -2.9,  999.0,  999.0,  999.0,  999.0,   -2.2,   -3.8,   -2.8,   -2.2,   -1.9,   -2.0,   -1.5,   -1.2,   -1.1,   -1.3,   -1.2,   -1.2,   -1.3,   -1.3,   -1.4,   -1.1,   -1.0,   -0.8,   -0.8,   -0.7,   -0.5,   -0.3,   -0.4,   -0.2,  999.0,  999.0,  999.0,  999.0,  999.0,  999.0,  999.0,  999.0,  999.0
2000/06/22 10:30,  999.0,  999.0,   -0.9,   -1.2,   -1.2,   -0.0,   -3.4,   -3.1,   -2.8,   -3.2,  999.0,   -3.1,   -3.8,   -2.5,   -3.5,   -3.0,   -4.0,   -4.0,   -2.1,   -1.3,   -1.1,   -1.0,   -0.9,   -0.9,   -1.0,   -1.1,   -1.1,   -1.2,   -1.1,   -0.9,   -0.9,   -0.7,   -0.7,   -0.8,   -0.5,   -0.4,   -0.5,   -0.5,  999.0,  999.0,  999.0,  999.0,  999.0,  999.0,  999.0,  999.0
2000/06/22 10:40,    0.2,  999.0,   -0.0,   -2.8,   -5.1,   -4.4,   -4.0,   -3.8,   -4.8,   -4.6,   -4.3,   -4.3,   -4.2,   -3.8,   -3.9,   -3.7,   -4.1,   -3.6,   -2.7,   -1.5,   -1.1,   -0.9,   -0.9,   -0.8,   -0.8,   -0.7,   -0.9,   -0.9,   -0.8,   -0.7,   -0.6,   -0.5,   -0.4,   -0.4,   -0.5,  999.0,  999.0,   -0.2,  999.0,  999.0,  999.0,  999.0,  999.0,  999.0,  999.0,  999.0
2000/06/22 10:50,   -0.2,  999.0,    0.2,   -2.1,  999.0,  999.0,  999.0,   -3.2,  999.0,  999.0,  999.0,  999.0,  999.0,   -3.7,   -3.5,   -3.5,   -3.4,   -2.8,   -2.7,   -1.2,   -1.0,   -0.9,   -0.9,   -0.8,   -0.8,   -0.8,   -0.8,   -0.9,   -1.0,   -0.9,   -0.8,   -0.8,   -0.9,   -0.9,  999.0,  999.0,  999.0,   -0.4,  999.0,  999.0,  999.0,  999.0,  999.0,  999.0,  999.0,  999.0
2000/06/22 11:00,  999.0,  999.0,  999.0,  999.0,  999.0,  999.0,  999.0,  999.0,  999.0,  999.0,  999.0,  999.0,   -1.6,   -2.3,   -3.3,   -3.3,   -3.2,   -3.3,   -3.1,   -1.5,   -1.2,   -1.1,   -1.1,   -1.1,   -1.1,   -1.0,   -1.0,   -0.9,   -0.9,   -0.9,   -0.9,   -0.8,   -0.9,   -0.8,   -0.9,   -0.9,  999.0,  999.0,  999.0,  999.0,  999.0,  999.0,  999.0,  999.0,  999.0,  999.0
2000/06/22 11:10,    0.1,  999.0,   -0.3,  999.0,  999.0,  999.0,  999.0,   -4.0,   -4.0,   -2.9,   -3.3,   -1.3,  999.0,   -3.9,   -2.9,   -4.3,   -2.3,   -1.9,   -1.7,   -1.2,   -0.9,   -0.7,   -0.5,   -0.5,   -0.5,   -0.8,   -0.8,   -0.8,   -0.8,   -0.9,   -0.9,   -0.8,   -0.9,   -0.8,   -1.0,   -0.9,   -1.1,   -1.1,   -0.9,   -0.6,  999.0,   -0.7,  999.0,  999.0,  999.0,  999.0
2000/06/22 11:20,   -0.5,  999.0,   -0.2,  999.0,  999.0,  999.0,   -0.1,   -0.3,   -0.2,  999.0,  999.0,   -0.1,   -0.1,   -1.0,   -1.7,   -2.0,   -1.7,   -1.6,   -1.3,   -1.0,   -0.8,   -0.5,   -0.4,   -0.4,   -0.5,   -0.9,   -1.0,   -1.0,  999.0,   -1.1,   -1.0,   -0.9,   -0.8,   -0.8,   -0.8,   -0.8,   -0.9,   -0.8,   -0.9,  999.0,  999.0,  999.0,  999.0,  999.0,  999.0,  999.0
2000/06/22 11:30,   -0.4,  999.0,   -0.0,  999.0,  999.0,  999.0,    0.1,  999.0,    0.1,    0.1,   -0.0,   -0.1,    0.2,    0.1,    0.0,   -0.9,   -2.2,   -2.2,   -1.9,   -1.1,   -1.0,   -1.0,   -1.0,   -1.1,   -1.1,   -1.0,   -1.0,   -1.0,   -0.8,   -1.0,   -1.0,   -0.9,   -0.8,   -0.9,   -0.7,   -0.7,   -0.5,  999.0,  999.0,  999.0,  999.0,  999.0,  999.0,  999.0,  999.0,  999.0
2000/06/22 11:40,   -0.4,  999.0,   -0.4,   -0.2,  999.0,  999.0,  999.0,   -2.8,  999.0,  999.0,  999.0,  999.0,   -3.5,   -3.7,   -3.6,   -3.4,   -3.3,   -3.8,   -2.3,   -1.5,   -1.4,   -1.3,   -1.2,   -1.1,   -1.1,   -1.0,   -1.0,   -1.0,   -1.1,   -1.0,   -1.0,   -0.9,   -0.9,   -0.9,   -1.1,   -1.0,   -0.9,   -0.4,  999.0,  999.0,  999.0,  999.0,  999.0,  999.0,  999.0,  999.0
2000/06/22 11:50,    0.8,  999.0,   -0.0,  999.0,  999.0,  999.0,   -4.8,   -4.5,   -4.6,   -4.8,   -5.0,   -4.6,   -4.5,   -4.3,   -4.4,   -4.3,   -4.4,   -4.3,   -1.7,   -1.3,   -1.3,   -1.2,   -1.3,   -1.3,   -1.3,   -1.3,   -1.2,   -1.1,   -1.0,   -0.9,   -0.8,   -0.7,   -0.7,   -0.7,   -0.9,   -0.8,   -0.6,  999.0,   -0.1,  999.0,  999.0,  999.0,  999.0,  999.0,  999.0,  999.0
2000/06/22 12:00,   -1.8,  999.0,   -3.4,   -5.1,   -5.3,   -5.2,   -5.2,   -5.4,   -4.9,   -4.7,   -4.5,   -4.7,   -5.1,   -4.9,   -4.9,   -4.5,   -4.4,   -4.3,   -2.0,   -1.3,   -1.2,   -1.2,   -1.3,   -1.3,   -1.2,   -1.2,   -1.2,   -1.1,   -1.1,   -1.0,   -0.9,   -0.6,   -0.7,   -0.7,   -1.1,   -1.0,   -0.8,   -0.5,    0.1,  999.0,  999.0,  999.0,  999.0,  999.0,  999.0,  999.0
2000/06/22 12:10,   -4.7,  999.0,   -2.4,   -3.6,   -3.7,   -4.1,   -4.0,   -3.6,   -3.8,   -3.9,   -3.9,   -3.8,   -3.7,   -3.9,   -3.8,   -3.7,   -3.9,   -3.7,   -2.5,   -1.5,   -1.2,   -1.3,   -1.2,   -1.2,   -1.2,   -1.2,   -1.2,   -1.2,   -1.0,   -1.0,   -0.8,   -0.8,   -0.7,   -0.8,   -0.9,   -1.0,   -0.9,  999.0,  999.0,   -0.8,  999.0,  999.0,  999.0,  999.0,  999.0,  999.0
2000/06/22 12:20,   -4.7,   -4.5,   -4.4,   -4.1,   -4.5,   -4.4,   -4.6,   -4.6,   -4.6,   -4.8,   -4.3,   -4.4,   -4.6,   -5.0,   -4.9,   -4.9,   -4.7,   -4.5,   -2.7,   -1.6,   -1.3,   -1.3,   -1.4,   -1.4,   -1.4,   -1.3,   -1.3,   -1.3,   -1.2,   -1.2,   -1.1,   -1.1,   -1.2,   -1.2,   -1.2,   -1.2,   -1.2,   -1.1,   -1.1,   -1.0,   -1.0,   -0.9,   -0.9,  999.0,  999.0,  999.0
2000/06/22 12:30,   -4.6,   -4.6,   -4.7,  999.0,   -4.7,  999.0,   -4.9,   -4.7,   -4.5,   -4.6,   -4.7,   -5.0,   -5.1,   -5.0,   -4.9,   -4.9,   -5.2,   -4.6,   -2.7,   -1.8,   -1.5,   -1.3,   -1.2,   -1.2,   -1.3,   -1.3,   -1.4,   -1.3,   -1.2,   -1.2,   -1.0,   -1.1,   -1.1,   -1.0,   -1.1,   -1.0,   -1.0,   -1.0,   -1.0,  999.0,   -0.9,  999.0,   -0.7,  999.0,  999.0,  999.0
2000/06/22 12:40,   -4.4,   -4.6,   -4.8,   -4.7,   -5.1,   -5.0,   -4.5,   -4.7,   -5.5,   -5.2,   -4.9,   -5.1,   -4.9,   -4.8,   -4.8,   -4.7,   -4.7,   -3.7,   -2.3,   -1.6,   -1.4,   -1.3,   -1.0,   -1.2,   -1.4,   -1.4,   -1.3,   -1.2,   -0.9,   -0.7,   -0.5,   -0.4,   -0.4,  999.0,  999.0,  999.0,  999.0,  999.0,  999.0,  999.0,  999.0,  999.0,  999.0,  999.0,  999.0,  999.0
2000/06/22 12:50,   -5.4,   -4.9,   -5.2,   -5.3,   -3.8,  999.0,   -5.3,   -4.8,   -4.9,   -5.4,   -5.1,   -4.5,   -4.9,   -4.8,   -4.8,   -5.2,   -5.6,   -5.0,   -2.6,   -1.9,   -1.6,   -1.6,   -1.5,   -1.3,   -1.5,   -1.7,   -1.5,   -1.3,   -1.1,   -0.9,   -0.4,   -0.4,   -0.2,  999.0,  999.0,  999.0,  999.0,  999.0,  999.0,  999.0,  999.0,  999.0,  999.0,  999.0,  999.0,  999.0
2000/06/22 13:00,   -5.2,   -4.9,   -5.1,   -4.5,   -5.4,   -4.6,   -5.2,   -6.0,   -5.2,   -6.1,   -6.2,   -6.3,   -5.9,   -5.6,   -5.5,   -5.5,   -5.4,   -5.1,   -2.6,   -1.8,   -1.4,   -1.2,   -1.1,   -1.1,   -1.1,   -1.2,   -1.3,   -1.2,   -1.0,   -0.7,   -0.4,   -0.3,   -0.0,  999.0,  999.0,  999.0,  999.0,  999.0,  999.0,  999.0,  999.0,  999.0,  999.0,  999.0,  999.0,  999.0
2000/06/22 13:10,   -5.1,   -5.3,   -4.6,   -5.3,   -4.9,   -5.8,   -6.0,   -5.8,   -5.0,   -5.2,   -4.4,   -4.3,   -4.5,   -4.4,   -4.7,   -4.4,   -4.0,   -4.4,   -2.8,   -1.6,   -1.2,   -1.0,   -0.9,   -0.8,   -0.7,   -0.8,   -0.8,   -1.0,   -0.6,   -0.2,   -0.4,   -0.4,  999.0,  999.0,  999.0,  999.0,  999.0,  999.0,  999.0,  999.0,  999.0,  999.0,  999.0,  999.0,  999.0,  999.0
2000/06/22 13:20,   -5.0,   -5.3,   -5.2,   -5.7,   -4.7,   -5.5,   -5.0,   -4.7,   -4.8,   -5.3,   -4.9,   -5.6,   -5.3,   -5.3,   -5.2,   -5.0,   -5.0,   -4.9,   -3.4,   -2.2,   -1.7,   -1.6,   -1.3,   -1.0,   -0.6,   -0.6,   -0.4,   -0.7,   -0.6,   -0.4,   -0.4,   -0.4,  999.0,  999.0,  999.0,  999.0,  999.0,  999.0,  999.0,  999.0,  999.0,  999.0,  999.0,  999.0,  999.0,  999.0
2000/06/22 13:30,   -4.4,   -4.4,   -3.8,   -4.2,   -4.3,   -4.2,   -3.9,   -3.9,   -4.3,   -4.0,   -3.5,   -3.4,   -3.8,   -3.1,   -4.0,   -3.9,   -3.6,   -3.5,   -3.2,   -1.7,   -1.0,   -0.7,   -0.4,   -0.4,   -0.0,   -0.2,   -0.4,   -0.7,   -0.7,   -0.7,   -0.8,   -0.7,   -1.0,   -1.0,   -0.9,   -0.9,   -0.9,   -0.7,   -0.7,  999.0,  999.0,  999.0,  999.0,  999.0,  999.0,  999.0
2000/06/22 13:40,   -3.2,   -4.4,   -4.3,   -4.7,   -4.6,  999.0,   -3.8,   -4.1,   -3.3,   -3.5,   -3.6,   -3.6,   -3.4,   -3.4,   -4.6,   -4.4,   -4.6,   -4.4,   -4.6,   -1.7,   -1.2,   -0.8,   -0.7,   -0.7,   -0.7,   -0.4,   -1.0,   -1.0,   -1.0,   -1.0,   -0.9,   -0.6,   -0.5,   -0.6,   -0.5,   -0.5,  999.0,  999.0,   -0.5,   -0.7,  999.0,  999.0,  999.0,  999.0,  999.0,  999.0
2000/06/22 13:50,   -4.5,   -3.4,   -3.4,   -3.0,   -2.8,   -2.7,   -2.6,   -2.6,   -2.5,   -2.3,   -2.2,   -2.0,   -1.9,   -1.7,   -1.5,   -1.1,   -1.2,   -0.9,   -0.5,   -0.6,   -0.5,   -0.3,   -0.2,   -0.1,   -0.4,   -0.1,    0.0,    0.1,  999.0,    0.1,    0.2,   -0.0,   -0.0,    0.0,   -0.6,  999.0,   -0.8,   -0.6,   -0.6,   -0.8,   -0.6,   -0.6,  999.0,   -0.8,   -0.9,   -0.9
2000/06/22 14:00,  999.0,   -2.8,   -2.5,   -2.9,   -2.8,   -2.7,   -2.7,   -2.4,   -2.4,   -2.3,   -1.9,   -1.8,   -1.2,   -0.8,    0.2,   -0.3,   -0.3,   -0.6,   -0.8,   -0.6,   -0.8,   -0.6,   -0.3,   -0.4,   -0.4,   -0.2,   -0.0,  999.0,    0.0,    0.0,  999.0,   -0.0,  999.0,  999.0,  999.0,  999.0,  999.0,   -0.6,   -0.6,   -0.7,  999.0,  999.0,  999.0,  999.0,  999.0,  999.0
2000/06/22 14:10,  999.0,  999.0,   -2.8,   -2.4,   -2.1,   -2.3,   -2.1,   -2.2,   -1.8,   -1.4,   -1.1,   -0.7,   -0.8,   -0.4,   -0.0,   -0.0,    0.1,   -0.1,   -0.1,    0.0,   -0.0,    0.2,    0.1,    0.0,   -0.1,    0.0,    0.2,  999.0,   -0.0,  999.0,  999.0,    0.0,  999.0,    0.0,   -0.0,   -0.0,  999.0,  999.0,  999.0,  999.0,  999.0,  999.0,  999.0,  999.0,  999.0,  999.0
2000/06/22 14:20,  999.0,  999.0,   -2.6,   -2.3,   -2.2,   -2.1,   -1.8,   -1.7,   -1.3,   -0.9,   -0.7,   -0.3,   -0.1,    0.1,   -0.0,   -0.1,   -0.0,   -0.0,   -0.1,   -0.0,    0.2,    0.0,   -0.4,   -0.4,   -0.1,   -0.6,   -0.6,   -0.6,   -0.6,   -0.8,   -0.7,   -0.6,   -0.3,   -0.3,   -0.2,  999.0,  999.0,   -0.1,   -0.1,  999.0,  999.0,  999.0,  999.0,  999.0,  999.0,  999.0
2000/06/22 14:30,  999.0,   -5.8,   -5.8,   -5.6,   -6.0,   -2.8,   -3.0,   -4.5,   -2.5,   -4.0,   -3.2,   -3.7,  999.0,   -1.4,   -2.0,   -1.4,   -2.5,   -3.8,   -2.8,   -1.7,   -1.4,   -1.5,   -1.6,   -1.5,   -1.6,   -1.6,   -1.4,   -1.3,   -1.0,   -1.1,   -0.7,   -0.6,   -0.4,   -0.4,   -0.2,  999.0,   -0.1,   -0.0,  999.0,  999.0,  999.0,  999.0,  999.0,  999.0,  999.0,  999.0
2000/06/22 14:40,  999.0,  999.0,  999.0,  999.0,   -1.8,   -1.7,   -1.6,   -1.4,   -1.1,   -0.9,   -0.5,   -0.3,   -0.4,   -0.3,   -0.2,   -0.1,   -0.1,   -0.1,   -0.7,   -0.4,   -0.1,   -0.1,    0.0,   -0.1,  999.0,  999.0,  999.0,   -0.4,   -0.3,   -0.2,   -0.2,   -0.1,   -0.2,   -0.2,   -0.3,   -0.3,  999.0,  999.0,  999.0,  999.0,  999.0,  999.0,  999.0,  999.0,  999.0,  999.0
2000/06/22 14:50,  999.0,   -0.0,  999.0,  999.0,   -1.5,   -1.6,   -1.4,   -1.5,   -1.3,   -1.4,   -1.3,   -1.2,   -0.8,   -0.7,   -0.4,   -0.2,   -0.2,   -0.2,   -0.1,   -0.6,    0.1,   -0.2,   -0.1,   -0.2,  999.0,   -0.3,   -0.2,   -0.2,   -0.2,   -0.1,   -0.2,   -0.2,  999.0,   -0.3,   -0.1,   -0.3,   -0.1,  999.0,  999.0,  999.0,  999.0,  999.0,  999.0,  999.0,  999.0,  999.0
2000/06/22 15:00,    0.1,  999.0,  999.0,   -2.0,   -1.9,   -2.0,   -1.5,   -1.5,   -1.3,   -1.0,   -1.5,   -1.3,   -1.9,   -1.1,   -0.9,   -1.0,   -0.6,   -0.3,   -0.3,   -0.4,   -0.2,   -0.1,   -0.2,   -0.1,   -0.1,   -0.1,   -0.0,   -0.1,    0.0,    0.0,   -0.1,   -0.1,    0.1,    0.0,    0.0,   -0.0,   -0.1,   -0.6,   -0.8,   -0.6,  999.0,  999.0,  999.0,  999.0,  999.0,  999.0
2000/06/22 15:10,  999.0,  999.0,  999.0,  999.0,   -0.1,   -0.6,   -1.0,   -0.9,   -0.2,   -0.1,   -0.1,    0.0,    0.1,   -0.2,   -1.2,   -0.7,   -0.4,   -0.7,   -0.3,   -0.6,   -0.2,   -0.0,   -0.2,   -0.2,    0.0,  999.0,  999.0,  999.0,  999.0,  999.0,   -0.1,   -0.2,    0.0,   -0.1,  999.0,  999.0,  999.0,  999.0,  999.0,   -0.6,  999.0,  999.0,  999.0,  999.0,  999.0,   -0.6
2000/06/22 15:20,  999.0,    0.0,   -0.0,   -0.2,  999.0,   -1.2,   -1.2,   -1.2,   -1.1,   -0.9,   -0.7,   -0.4,   -0.3,   -0.4,   -1.0,   -0.4,   -0.4,   -0.5,   -0.4,   -0.5,   -0.5,   -0.2,   -0.1,   -0.2,   -0.1,   -0.0,  999.0,  999.0,   -0.0,  999.0,   -0.1,   -0.0,   -0.1,    0.0,   -0.1,    0.1,   -0.1,    0.2,  999.0,  999.0,  999.0,  999.0,  999.0,  999.0,  999.0,  999.0
2000/06/22 15:30,  999.0,  999.0,  999.0,   -2.2,   -2.2,   -2.2,   -2.1,   -2.2,   -2.2,   -2.4,   -2.1,   -2.0,   -1.8,   -1.7,   -1.6,   -1.9,   -1.7,   -1.6,   -1.4,   -1.0,   -0.8,   -0.8,   -1.1,   -0.8,   -1.2,   -1.4,   -0.8,   -0.9,   -0.7,   -0.5,   -0.7,   -0.5,   -0.5,   -0.4,   -0.2,   -0.0,   -0.1,   -0.1,  999.0,  999.0,  999.0,  999.0,  999.0,  999.0,  999.0,  999.0
2000/06/22 15:40,  999.0,  999.0,  999.0,  999.0,  999.0,   -6.5,   -6.3,   -5.9,   -6.2,   -6.2,   -6.3,   -6.1,   -6.1,   -6.2,   -6.2,   -6.0,   -6.2,   -6.3,   -4.2,   -2.6,   -2.0,   -1.9,   -1.8,   -1.6,   -1.5,   -1.3,   -1.4,   -1.2,   -1.1,   -1.0,   -0.9,   -0.8,   -0.7,   -0.7,   -0.6,   -0.6,   -0.5,   -0.1,   -0.3,  999.0,  999.0,  999.0,  999.0,  999.0,  999.0,  999.0
2000/06/22 15:50,   -4.1,   -4.7,   -3.6,   -4.5,   -4.2,   -4.4,   -4.2,   -3.8,   -4.0,   -4.0,   -4.3,   -3.6,   -4.0,   -3.9,   -4.4,   -4.0,   -3.9,   -3.6,   -4.0,   -2.0,   -1.8,   -1.6,   -1.3,   -1.1,   -1.0,   -1.2,   -1.2,   -0.9,   -1.0,   -1.0,   -0.9,   -0.8,   -0.5,   -0.4,   -0.4,   -0.2,   -0.2,   -0.2,    0.1,    0.1,    0.1,   -0.0,  999.0,  999.0,  999.0,  999.0
2000/06/22 16:00,   -6.2,   -6.1,   -6.1,   -6.1,   -6.3,   -6.0,   -6.3,   -6.5,   -6.4,   -6.4,   -6.2,   -6.3,   -6.5,   -6.8,   -6.9,   -6.9,   -7.0,   -6.2,   -3.9,   -2.6,   -2.1,   -1.8,   -1.5,   -1.3,   -1.1,   -1.1,   -0.9,   -0.9,   -1.0,   -0.9,   -1.0,   -1.2,   -0.6,   -0.5,   -0.2,   -0.2,   -0.1,   -0.1,   -0.1,   -0.0,  999.0,   -0.1,   -0.2,  999.0,  999.0,  999.0
2000/06/22 16:10,   -5.6,   -5.7,   -5.7,   -5.5,   -5.4,   -5.6,   -5.6,   -5.7,   -5.4,   -5.3,   -5.5,   -5.5,   -4.5,   -4.2,   -3.9,   -3.6,   -3.6,   -3.4,   -3.2,   -3.0,   -2.1,   -1.7,   -1.6,   -1.3,   -1.4,   -1.2,   -1.4,   -1.1,   -1.0,   -0.6,   -0.7,   -0.6,   -0.7,   -0.9,   -0.5,   -0.3,   -0.4,   -0.3,   -0.5,   -0.5,   -0.1,   -0.1,   -0.1,   -0.2,   -0.1,   -0.2
2000/06/22 16:20,   -4.0,   -4.3,   -4.1,   -2.9,   -2.3,  999.0,   -1.9,   -2.1,   -2.0,   -1.9,   -1.8,   -1.6,   -1.1,   -0.7,   -0.7,   -0.5,   -0.5,   -0.7,   -0.4,   -0.6,   -0.6,   -0.4,   -0.8,  999.0,   -0.2,   -0.7,   -0.6,   -0.7,   -0.6,   -0.5,   -0.5,   -0.1,   -0.0,   -0.2,   -0.2,   -0.3,   -0.1,  999.0,    0.0,  999.0,   -0.2,  999.0,  999.0,  999.0,  999.0,  999.0
2000/06/22 16:30,  999.0,  999.0,  999.0,   -4.1,   -4.0,   -3.2,   -3.6,   -3.2,   -2.8,   -2.3,   -2.4,   -2.1,   -1.8,   -1.4,   -1.2,   -1.2,   -1.3,   -1.2,   -1.0,   -1.0,   -1.0,   -0.8,   -0.6,   -0.7,   -0.2,   -0.2,    0.0,   -0.2,  999.0,   -0.7,  999.0,   -0.2,   -0.1,  999.0,  999.0,   -0.1,   -0.1,  999.0,  999.0,  999.0,  999.0,  999.0,  999.0,  999.0,  999.0,  999.0
2000/06/22 16:40,  999.0,  999.0,  999.0,  999.0,   -2.8,   -3.4,   -3.3,   -2.9,   -2.3,   -2.0,   -1.9,   -2.0,   -2.0,   -1.6,   -1.7,   -1.3,   -1.7,   -1.8,   -1.9,   -1.6,   -1.1,   -0.8,   -0.8,   -0.4,   -0.2,    0.0,   -0.1,   -0.1,  999.0,  999.0,  999.0,   -0.0,   -0.0,   -0.1,  999.0,  999.0,  999.0,  999.0,  999.0,  999.0,  999.0,  999.0,  999.0,  999.0,  999.0,  999.0
2000/06/22 16:50,   -3.7,   -2.8,  999.0,  999.0,   -3.5,   -3.4,   -3.3,   -2.5,   -2.9,   -3.2,   -2.5,   -2.6,   -2.9,   -3.0,   -3.1,   -2.9,   -2.5,   -3.0,   -1.8,   -1.5,   -1.1,   -0.9,   -0.5,   -0.3,   -0.5,   -0.4,   -0.2,   -0.2,   -0.0,  999.0,  999.0,    0.0,   -0.1,    0.0,    0.0,   -0.1,  999.0,   -0.0,    0.0,   -0.1,  999.0,  999.0,  999.0,  999.0,  999.0,  999.0
2000/06/22 17:00,   -4.9,   -5.1,   -5.2,   -5.4,   -5.0,   -5.2,   -5.1,   -4.4,   -4.1,   -4.3,   -5.3,   -4.9,   -4.4,   -4.1,   -3.6,   -3.4,   -3.3,   -2.9,   -2.6,   -2.2,   -1.9,   -1.5,   -1.3,   -1.1,   -0.9,   -0.5,   -0.6,   -0.5,   -0.4,   -0.5,   -0.9,   -0.1,   -0.3,    0.4,  999.0,   -0.1,  999.0,  999.0,   -0.0,   -0.0,  999.0,  999.0,  999.0,  999.0,  999.0,  999.0
2000/06/22 17:10,   -5.4,   -5.7,   -6.0,   -5.7,   -6.1,   -5.5,   -5.7,   -5.4,   -4.9,   -4.3,   -4.1,   -4.5,   -4.4,   -3.3,   -3.2,   -3.6,   -3.6,   -3.5,   -3.6,   -3.5,   -2.8,   -2.2,   -1.7,   -1.5,   -1.4,   -1.1,   -0.8,   -0.6,   -0.4,   -0.1,   -0.0,   -0.0,   -0.2,   -0.4,  999.0,  999.0,  999.0,  999.0,  999.0,  999.0,  999.0,  999.0,  999.0,  999.0,  999.0,  999.0
2000/06/22 17:20,   -5.2,   -4.7,   -5.8,   -5.3,   -4.6,   -4.4,   -4.2,   -4.3,   -4.0,   -3.9,   -3.9,   -2.6,   -3.2,   -3.2,   -3.4,   -3.2,   -2.9,   -3.1,   -2.9,   -1.8,   -1.4,   -1.3,   -1.2,   -1.1,   -0.9,   -1.0,   -1.0,   -0.7,   -0.8,   -0.8,   -0.7,   -0.6,   -0.4,   -0.6,  999.0,  999.0,  999.0,  999.0,  999.0,  999.0,  999.0,  999.0,  999.0,  999.0,  999.0,  999.0
2000/06/22 17:30,   -5.1,   -5.3,   -5.5,   -5.4,   -5.2,   -4.9,   -4.6,   -5.1,   -4.2,   -4.9,   -4.8,   -4.7,   -5.6,   -5.6,   -5.5,   -5.9,   -6.1,   -5.7,   -4.3,   -2.5,   -1.8,   -1.7,   -1.6,   -1.3,   -1.2,   -1.1,   -1.3,   -1.2,   -1.1,   -0.9,   -1.0,   -1.1,   -0.9,   -0.5,   -0.9,  999.0,  999.0,  999.0,  999.0,  999.0,  999.0,  999.0,  999.0,  999.0,  999.0,  999.0
2000/06/22 17:40,   -6.1,   -6.2,   -5.8,   -5.3,   -5.6,   -6.1,   -5.4,   -5.1,   -5.4,   -5.5,   -5.2,   -5.0,   -5.0,   -4.9,   -5.2,   -5.5,   -5.5,   -5.2,   -3.5,   -2.3,   -1.8,   -1.4,   -1.6,   -1.3,   -1.0,   -0.9,   -1.1,   -1.2,   -1.2,   -1.2,   -1.1,   -0.8,   -0.5,   -0.5,   -0.5,   -0.7,   -0.7,   -0.7,   -0.7,   -0.6,   -1.0,   -0.7,  999.0,  999.0,   -0.8,   -0.8
2000/06/22 17:50,  999.0,   -3.8,   -3.4,   -3.8,   -4.0,   -4.0,  999.0,   -3.2,   -3.0,   -2.7,   -2.4,   -2.3,   -2.0,   -1.9,   -1.8,   -1.8,   -1.5,   -1.9,   -1.8,   -1.1,   -0.9,   -1.1,   -1.1,   -0.8,   -0.6,   -0.8,   -0.2,   -0.3,   -0.6,   -0.6,   -0.9,   -0.6,   -0.5,   -0.3,  999.0,  999.0,  999.0,   -0.7,   -0.7,   -0.7,   -0.7,   -0.7,   -0.8,   -0.8,   -0.8,  999.0
2000/06/22 18:00,   -4.8,   -3.9,   -3.8,   -3.5,   -3.9,   -4.2,   -3.5,   -3.7,   -3.4,   -3.7,   -3.1,   -3.3,   -3.0,   -3.4,   -3.2,   -2.9,   -2.3,   -1.9,   -1.6,   -0.9,   -0.8,   -0.9,   -1.0,   -0.7,   -0.7,   -0.8,   -0.7,   -0.8,   -1.2,   -1.1,   -0.9,   -0.5,   -0.5,   -0.5,   -0.6,   -0.9,   -0.8,   -0.7,   -0.7,  999.0,  999.0,  999.0,  999.0,  999.0,  999.0,  999.0
2000/06/22 18:10,   -3.3,   -3.2,   -3.2,   -2.8,   -2.6,   -2.4,   -2.0,   -1.8,   -1.8,   -1.6,   -2.1,   -1.3,   -1.0,   -0.7,   -0.1,   -0.1,   -0.0,   -0.0,   -0.1,   -0.7,   -0.7,   -0.6,   -0.6,   -0.5,   -0.3,   -0.2,    0.0,   -0.2,    0.1,   -0.3,  999.0,  999.0,   -0.0,    0.0,    0.1,   -0.0,    0.0,    0.1,    0.1,   -0.2,  999.0,  999.0,  999.0,  999.0,  999.0,  999.0
2000/06/22 18:20,   -3.9,  999.0,  999.0,   -3.3,   -2.9,   -2.3,   -1.9,   -1.4,   -1.8,   -1.6,   -1.6,   -0.5,   -0.6,    0.0,    0.1,   -0.4,   -0.1,   -0.1,   -0.2,   -0.3,   -0.0,   -0.2,   -0.5,   -0.2,  999.0,   -0.0,   -0.0,   -0.0,    0.0,   -0.5,  999.0,   -0.1,  999.0,  999.0,  999.0,   -0.1,    0.0,  999.0,  999.0,  999.0,  999.0,  999.0,  999.0,  999.0,  999.0,  999.0
2000/06/22 18:30,   -1.9,   -1.9,   -1.8,   -1.4,   -0.7,   -0.5,   -0.4,   -0.1,   -0.1,   -0.1,   -0.1,    0.1,    0.2,   -0.8,   -1.0,   -1.2,   -0.5,   -0.6,   -0.6,   -0.5,   -0.3,   -0.3,   -0.6,   -0.5,   -0.5,   -0.4,    0.0,    0.1,  999.0,  999.0,  999.0,  999.0,  999.0,  999.0,  999.0,  999.0,    0.0,   -0.0,  999.0,  999.0,  999.0,  999.0,  999.0,  999.0,  999.0,  999.0
2000/06/22 18:40,  999.0,   -4.5,  999.0,   -4.8,   -3.6,   -4.4,   -4.8,   -4.0,   -3.5,   -4.2,   -3.8,   -4.3,   -4.4,   -3.7,   -3.1,   -2.7,   -3.0,   -2.7,   -1.9,   -2.2,   -1.7,   -1.3,   -1.1,   -0.9,   -0.8,   -0.7,   -0.6,   -0.8,   -0.3,   -0.4,   -0.3,   -0.3,  999.0,   -0.2,  999.0,  999.0,  999.0,  999.0,  999.0,  999.0,  999.0,  999.0,  999.0,  999.0,  999.0,  999.0
2000/06/22 18:50,   -3.8,  999.0,   -4.0,   -3.5,   -3.3,   -3.5,   -3.7,   -3.3,   -3.0,   -3.1,   -2.9,   -2.7,   -2.9,   -2.7,   -2.5,   -2.1,   -2.2,   -2.4,   -2.2,   -1.6,   -1.2,   -1.0,   -0.9,   -0.8,   -1.0,   -0.6,   -0.2,   -0.7,  999.0,  999.0,  999.0,  999.0,  999.0,  999.0,  999.0,  999.0,  999.0,  999.0,  999.0,  999.0,  999.0,  999.0,  999.0,  999.0,  999.0,  999.0
2000/06/22 19:00,  999.0,  999.0,   -3.6,   -3.1,   -3.5,   -4.3,   -4.6,   -4.4,   -4.0,   -4.0,   -4.2,   -4.1,   -3.6,   -3.5,   -3.0,   -2.6,   -2.2,   -1.9,   -1.4,   -1.1,   -1.1,   -0.6,    0.0,   -0.2,   -0.1,    0.1,    0.2,  999.0,  999.0,  999.0,  999.0,  999.0,  999.0,  999.0,  999.0,  999.0,  999.0,  999.0,  999.0,  999.0,  999.0,  999.0,  999.0,  999.0,  999.0,  999.0
2000/06/22 19:10,   -3.5,   -3.4,   -2.7,   -3.0,   -3.1,   -2.8,   -2.6,   -2.5,   -2.3,   -2.2,   -2.0,   -1.7,   -1.4,   -1.2,   -1.2,   -1.1,   -0.7,   -0.3,   -0.2,   -0.1,   -0.2,   -0.0,   -0.2,   -0.0,    0.0,   -0.0,   -0.1,  999.0,  999.0,  999.0,  999.0,  999.0,  999.0,  999.0,  999.0,  999.0,  999.0,  999.0,  999.0,  999.0,  999.0,  999.0,  999.0,  999.0,  999.0,  999.0
2000/06/22 19:20,   -2.0,   -1.9,   -2.0,   -2.2,   -2.0,   -2.0,   -1.9,   -2.0,   -1.6,   -1.5,   -0.8,   -0.6,   -0.6,   -0.6,   -0.6,   -0.5,   -0.2,   -0.1,    0.1,    0.0,    0.0,  999.0,   -0.0,    0.1,   -0.2,   -0.1,   -0.1,  999.0,  999.0,  999.0,  999.0,  999.0,   -0.2,    0.0,  999.0,  999.0,  999.0,  999.0,  999.0,  999.0,  999.0,  999.0,  999.0,  999.0,  999.0,  999.0
2000/06/22 19:30,   -2.2,   -2.5,  999.0,   -2.4,   -1.5,   -1.5,   -1.2,   -0.7,   -0.7,   -0.5,   -0.5,   -0.3,    0.0,   -0.0,   -0.4,   -0.3,   -0.4,   -0.4,   -0.3,   -0.4,   -0.2,   -0.1,  999.0,   -0.0,   -0.1,   -0.2,   -0.3,   -0.3,  999.0,  999.0,   -0.2,   -0.2,    0.1,    0.2,    0.2,  999.0,  999.0,   -0.1,  999.0,  999.0,  999.0,  999.0,  999.0,  999.0,  999.0,  999.0
2000/06/22 19:40,   -3.6,   -4.9,   -4.7,   -4.7,   -5.0,   -4.6,   -5.3,   -4.4,   -4.1,   -4.5,   -4.4,   -4.3,   -4.7,   -4.2,   -4.1,   -4.2,   -3.9,   -4.5,   -3.8,   -1.4,   -1.4,   -1.0,   -1.2,   -1.2,   -1.0,   -1.1,   -1.0,   -0.9,   -0.8,   -0.8,   -0.4,   -0.0,    0.1,    0.2,    0.1,    0.2,  999.0,    0.0,  999.0,  999.0,  999.0,  999.0,  999.0,  999.0,   -0.9,  999.0
2000/06/22 19:50,   -4.4,   -4.4,   -3.8,   -4.0,   -4.2,   -4.3,   -4.1,   -4.3,   -4.1,   -4.5,   -4.2,   -4.6,   -4.5,   -3.9,   -3.8,   -3.7,   -3.5,   -3.7,   -2.7,   -1.9,   -1.4,   -1.3,   -1.3,   -1.2,   -1.4,   -1.1,   -0.8,   -0.5,   -0.9,   -0.9,   -0.7,   -0.5,   -0.3,   -0.2,   -0.0,   -0.1,   -0.1,   -0.2,  999.0,  999.0,  999.0,  999.0,   -0.6,   -0.6,   -0.5,  999.0
2000/06/22 20:00,   -5.3,   -5.3,   -5.3,   -5.4,   -5.8,   -5.6,   -5.7,   -5.7,   -5.6,   -5.8,   -5.8,   -6.0,   -6.1,   -6.2,   -6.4,   -6.2,   -6.2,   -5.6,   -3.4,   -2.2,   -1.8,   -1.9,   -1.7,   -1.4,   -1.3,   -1.0,   -0.6,   -0.5,   -0.9,   -0.5,   -0.1,   -0.4,   -0.6,   -0.3,   -0.4,   -0.1,   -0.1,    0.1,  999.0,  999.0,  999.0,  999.0,  999.0,  999.0,  999.0,  999.0
2000/06/22 20:10,   -4.8,   -4.5,   -3.6,   -3.9,   -4.3,   -4.8,   -5.0,   -5.2,   -5.6,   -5.6,   -6.0,   -6.0,   -6.1,   -5.9,   -5.5,   -5.9,   -5.8,   -6.0,   -4.7,   -2.6,   -2.2,   -1.7,   -1.3,   -1.1,   -1.1,   -1.1,   -1.1,   -1.1,   -1.1,   -0.9,   -0.9,   -0.6,   -0.5,   -0.3,   -0.4,   -0.2,   -0.6,   -0.5,  999.0,  999.0,  999.0,  999.0,  999.0,  999.0,  999.0,  999.0
2000/06/22 20:20,   -5.8,   -5.7,   -5.7,   -5.2,   -5.5,   -5.9,   -5.3,   -5.5,   -5.8,   -5.4,   -5.5,   -5.2,   -5.0,   -4.8,   -4.8,   -4.9,   -4.8,   -4.6,   -3.8,   -2.0,   -1.4,   -1.3,   -1.5,   -1.4,   -1.1,   -0.9,   -0.5,   -0.3,   -0.3,   -0.2,   -0.1,   -0.3,    0.0,  999.0,   -0.1,  999.0,   -0.2,  999.0,  999.0,  999.0,  999.0,  999.0,  999.0,  999.0,  999.0,  999.0
2000/06/22 20:30,   -5.4,   -5.4,   -6.1,   -5.9,   -5.7,   -6.0,   -5.8,   -5.8,   -5.8,   -5.7,   -5.8,   -5.7,   -5.5,   -5.7,   -5.4,   -5.3,   -5.2,   -5.4,   -3.1,   -1.8,   -1.5,   -1.0,   -1.3,   -1.2,   -1.0,   -1.0,   -0.8,   -0.7,   -0.8,   -0.9,   -0.7,   -0.9,   -0.9,   -0.8,   -0.7,   -0.5,   -0.3,   -0.2,   -0.2,   -0.4,    0.3,   -0.3,  999.0,  999.0,  999.0,  999.0
2000/06/22 20:40,   -5.7,   -5.5,   -5.5,   -5.8,   -5.6,   -5.2,   -5.1,   -5.4,   -5.2,   -4.9,   -5.2,   -5.5,   -5.2,   -5.2,   -5.3,   -5.1,   -5.9,   -5.9,   -3.9,   -2.6,   -2.2,   -2.1,   -2.0,   -1.3,   -1.0,   -0.8,   -0.9,   -1.3,   -1.4,   -1.9,   -1.5,   -1.7,   -1.5,   -1.5,   -1.0,   -1.2,   -1.5,   -1.2,   -0.5,   -1.0,   -0.2,  999.0,  999.0,  999.0,  999.0,  999.0
2000/06/22 20:50,   -4.8,   -5.3,   -5.0,   -4.6,   -4.6,   -4.5,   -4.5,   -4.3,   -4.4,   -4.3,   -5.0,   -4.4,   -4.3,   -4.2,   -4.2,   -4.3,   -4.9,   -4.7,   -4.0,   -2.8,   -2.4,   -1.9,   -1.8,   -1.6,   -1.1,   -0.7,   -0.6,   -0.5,   -1.0,   -1.0,   -1.0,   -0.6,   -0.9,   -0.6,   -1.0,   -0.5,   -0.3,   -0.1,   -0.3,  999.0,  999.0,  999.0,  999.0,  999.0,  999.0,  999.0
2000/06/22 21:00,   -4.5,   -4.3,   -4.5,   -4.5,   -4.3,   -4.2,   -4.4,   -4.5,   -4.2,   -3.9,   -3.2,   -3.0,   -3.2,   -2.9,   -2.8,   -2.5,   -2.6,   -2.3,   -2.0,   -1.3,   -1.0,   -0.9,   -0.8,   -0.9,   -0.6,   -0.8,   -0.7,   -0.5,   -1.1,   -1.0,   -0.4,   -0.5,   -0.5,  999.0,  999.0,  999.0,    0.0,  999.0,  999.0,  999.0,  999.0,  999.0,  999.0,  999.0,  999.0,  999.0
2000/06/22 21:10,  999.0,   -2.7,   -3.6,   -3.5,   -3.3,   -3.0,   -3.5,   -3.4,   -2.9,   -2.1,   -2.0,   -2.0,   -1.2,   -1.0,   -2.5,   -1.6,   -2.5,   -2.1,   -0.6,   -1.5,   -1.6,   -0.7,   -1.0,   -1.0,   -0.8,   -0.6,   -0.7,   -1.0,   -0.4,    0.0,   -0.3,   -0.8,   -1.1,  999.0,  999.0,  999.0,  999.0,  999.0,  999.0,  999.0,  999.0,  999.0,  999.0,  999.0,  999.0,  999.0
2000/06/22 21:20,   -5.0,   -4.9,   -4.7,   -4.6,   -4.5,   -4.3,   -4.3,   -4.1,   -3.5,   -3.5,   -3.3,   -2.9,   -2.9,   -2.3,   -1.9,   -1.4,   -1.4,   -1.0,   -0.5,   -0.3,   -0.2,   -0.0,   -0.4,   -0.2,   -0.2,   -0.3,   -0.1,  999.0,  999.0,    0.2,    0.1,  999.0,  999.0,  999.0,  999.0,  999.0,  999.0,  999.0,  999.0,  999.0,  999.0,  999.0,  999.0,  999.0,  999.0,  999.0
2000/06/22 21:30,   -4.1,   -3.8,   -4.0,   -3.8,   -3.9,   -3.9,   -3.4,   -3.4,   -3.7,   -3.2,   -3.3,   -3.0,   -3.0,   -2.6,   -2.1,   -1.8,   -1.5,   -1.5,   -1.1,   -1.0,   -0.4,   -0.3,   -0.4,   -0.0,    0.1,   -0.6,   -0.2,    0.3,   -0.1,    0.1,    0.1,  999.0,  999.0,  999.0,  999.0,  999.0,  999.0,  999.0,  999.0,  999.0,  999.0,  999.0,  999.0,  999.0,  999.0,  999.0
2000/06/22 21:40,   -0.8,   -2.3,   -1.7,   -2.9,   -2.4,   -2.0,   -1.6,   -1.1,   -1.7,   -1.8,   -1.4,  999.0,   -0.8,   -1.0,   -0.8,   -0.7,   -0.7,   -0.8,   -0.8,   -0.8,   -0.6,   -0.2,  999.0,    0.0,   -0.0,   -0.1,   -0.4,   -0.4,  999.0,    0.0,    0.0,  999.0,  999.0,  999.0,  999.0,  999.0,  999.0,  999.0,  999.0,  999.0,  999.0,  999.0,  999.0,  999.0,  999.0,  999.0
2000/06/22 21:50,    0.3,    0.7,    0.8,    0.3,    0.2,    0.2,    0.0,   -0.1,   -0.5,   -0.1,   -0.2,   -0.2,   -0.1,   -0.1,   -0.1,   -0.1,   -0.1,   -0.1,   -0.2,   -0.7,   -0.5,   -0.4,   -0.2,   -0.1,   -0.1,   -0.1,   -0.4,   -0.2,  999.0,   -0.1,   -0.0,  999.0,  999.0,  999.0,  999.0,  999.0,  999.0,  999.0,  999.0,  999.0,  999.0,  999.0,  999.0,  999.0,  999.0,  999.0
2000/06/22 22:00,   -0.1,   -0.1,   -0.2,    0.0,    0.2,    0.4,    0.2,    0.2,    0.2,    0.2,    0.1,   -0.0,   -0.0,   -0.2,   -0.2,   -0.2,   -0.4,  999.0,   -0.5,  999.0,   -0.2,   -0.2,   -0.2,   -0.2,   -0.2,   -0.2,   -0.3,  999.0,  999.0,   -0.1,   -0.2,  999.0,  999.0,  999.0,  999.0,  999.0,  999.0,  999.0,  999.0,  999.0,  999.0,  999.0,  999.0,  999.0,  999.0,  999.0
2000/06/22 22:10,   -0.1,    0.4,    0.5,    0.2,    0.1,    0.1,    0.2,   -0.0,   -0.1,   -0.3,   -0.2,   -0.1,   -0.0,   -0.1,   -0.2,   -0.2,   -0.4,   -0.3,  999.0,   -0.4,   -0.3,   -0.1,   -0.5,   -0.3,    0.0,   -0.3,  999.0,  999.0,  999.0,    0.3,    0.3,  999.0,  999.0,  999.0,  999.0,  999.0,  999.0,  999.0,  999.0,  999.0,  999.0,  999.0,  999.0,  999.0,  999.0,  999.0
2000/06/22 22:20,    0.3,    0.4,    0.3,    0.2,    0.0,    0.1,   -0.0,   -0.1,    0.3,    0.2,   -0.0,    0.1,    0.0,   -0.0,   -0.4,   -0.1,    0.0,  999.0,    0.1,  999.0,   -0.1,    0.1,  999.0,   -0.3,   -0.2,   -0.4,  999.0,  999.0,  999.0,  999.0,  999.0,  999.0,  999.0,  999.0,  999.0,  999.0,  999.0,  999.0,  999.0,   -0.3,  999.0,  999.0,  999.0,  999.0,  999.0,  999.0
2000/06/22 22:30,  999.0,    0.4,    0.4,    0.3,  999.0,    0.1,    0.0,   -0.1,    0.4,   -0.0,    0.1,    0.1,    0.1,  999.0,    0.1,  999.0,   -0.0,    0.1,  999.0,  999.0,   -0.1,    0.1,    0.2,   -0.3,   -0.0,  999.0,  999.0,  999.0,  999.0,   -0.4,   -0.4,   -0.3,   -0.2,   -0.3,   -0.2,   -0.1,   -0.1,    0.1,    0.1,  999.0,  999.0,  999.0,  999.0,  999.0,  999.0,  999.0
2000/06/22 22:40,   -0.1,    0.7,    0.6,    0.4,   -0.1,    0.1,    0.0,    0.2,   -0.0,    0.1,    0.2,    0.3,    0.1,    0.0,    0.2,   -0.0,    0.0,    0.0,  999.0,   -0.2,   -0.1,   -0.0,    0.1,   -0.2,   -0.2,   -0.4,  999.0,  999.0,  999.0,   -0.3,   -0.4,   -0.5,   -0.4,   -0.5,    0.1,   -0.1,   -0.4,  999.0,    0.1,  999.0,  999.0,  999.0,  999.0,  999.0,  999.0,  999.0
2000/06/22 22:50,    0.2,    1.0,    1.0,    0.3,    0.0,    0.1,   -0.0,   -0.1,    0.0,    0.0,   -0.0,    0.0,   -0.1,   -0.1,    0.0,    0.0,  999.0,  999.0,  999.0,  999.0,    0.2,    0.2,    0.1,   -0.1,    0.0,    0.0,    0.1,    0.2,    0.0,    0.0,    0.0,    0.0,    0.1,    0.0,   -0.1,   -0.1,    0.1,    0.1,  999.0,   -0.1,  999.0,  999.0,  999.0,  999.0,  999.0,  999.0
2000/06/22 23:00,    0.3,    0.6,    0.2,   -0.3,   -0.1,   -0.1,    0.1,   -0.1,   -0.0,   -0.1,   -0.0,    0.0,   -0.0,   -0.2,   -0.2,    0.1,    0.1,  999.0,  999.0,  999.0,    0.0,    0.0,    0.1,   -0.0,    0.1,    0.0,   -0.0,    0.3,    0.5,    0.1,    0.0,    0.0,   -0.1,   -0.1,   -0.1,   -0.3,   -0.0,    0.1,  999.0,  999.0,  999.0,  999.0,  999.0,  999.0,  999.0,  999.0
2000/06/22 23:10,   -0.0,    0.1,    0.0,   -0.1,  999.0,   -0.2,   -0.2,   -0.1,   -0.1,   -0.0,  999.0,   -0.0,   -0.1,   -0.1,  999.0,  999.0,  999.0,  999.0,  999.0,  999.0,  999.0,   -0.4,   -0.4,   -0.9,   -1.4,   -0.8,   -0.6,   -1.0,   -1.6,   -1.7,   -1.6,   -1.3,   -1.2,   -1.1,   -0.9,   -0.7,   -0.5,   -0.4,   -0.2,   -0.2,   -0.1,   -0.1,    0.2,  999.0,  999.0,  999.0
2000/06/22 23:20,  999.0,   -2.9,  999.0,   -2.9,   -4.0,  999.0,  999.0,   -6.4,   -6.6,   -6.5,   -6.7,   -6.7,   -6.9,   -7.0,   -7.0,   -7.0,   -7.0,   -5.8,   -2.9,   -1.9,   -1.7,   -1.2,   -1.1,   -1.5,   -1.8,   -1.7,   -1.6,   -1.5,   -1.4,   -1.3,   -1.1,   -0.9,   -0.7,   -0.9,   -1.1,   -1.0,   -0.8,   -0.6,   -0.5,   -1.0,   -0.9,   -0.8,   -0.7,   -1.0,   -1.1,   -0.7
2000/06/22 23:30,   -5.6,   -5.7,   -5.7,   -5.7,   -6.5,   -6.3,   -6.5,   -6.2,   -6.3,   -5.7,   -5.6,   -5.2,   -5.2,   -5.7,   -5.6,   -5.6,   -5.7,   -4.6,   -2.6,   -2.0,   -1.9,   -1.9,   -2.0,   -1.8,   -1.8,   -1.5,   -1.5,   -1.5,   -1.5,   -1.4,   -1.2,   -1.2,   -0.9,   -0.9,   -0.7,   -0.6,   -0.8,   -0.6,   -0.6,   -1.0,   -1.1,   -0.7,   -0.7,   -1.0,   -1.0,   -1.0
2000/06/22 23:40,   -5.0,   -5.1,   -5.0,   -5.5,   -5.9,   -6.0,   -5.9,   -5.9,   -6.0,   -5.8,   -5.7,   -5.8,   -5.5,   -5.9,   -6.1,   -6.1,   -6.3,   -5.4,   -3.1,   -2.4,   -2.1,   -2.1,   -2.1,   -2.1,   -1.9,   -1.7,   -1.6,   -1.7,   -1.5,   -2.0,   -2.1,   -1.8,   -1.6,   -1.2,   -1.0,   -0.9,   -1.0,   -1.1,   -1.1,   -1.1,   -1.0,   -0.9,   -0.7,   -0.9,   -0.6,   -0.6
2000/06/22 23:50,   -4.8,   -4.8,   -5.0,   -4.9,   -5.1,   -5.1,   -5.2,   -4.9,   -5.1,   -5.5,   -5.5,   -5.5,   -5.4,   -5.3,   -5.3,   -5.3,   -5.2,   -4.8,   -4.1,   -3.8,   -3.9,   -3.5,   -3.1,   -2.6,   -2.3,   -2.0,   -1.8,   -1.2,   -0.9,   -0.8,   -0.2,    0.1,   -0.3,   -0.2,   -0.2,    0.2,   -0.3,    0.1,  999.0,   -0.8,   -0.4,    0.1,    0.1,    0.7,    1.0,    0.5
